Flag for South Africa Weather past 2 weeks in Durban, South Africa

Now
68 °F

Passing clouds.


Feels Like: 68 °F
Forecast: 60 / 74 °F
Wind: 10 mph from Southwest

Location: King Shaka International Airport

Current Time: Mar 2, 2015 at 3:48:10 AM

Latest Report: Mar 2, 2015 at 3:00 AM


Visibility: N/A

Pressure: 30.04 "Hg

Humidity: 78%

Dew point: 61 °F

Location of DurbanLocation

Historic Weather in Durban — Graph

°F

Durban temperature yesterday

Maximum temperature yesterday: 81 °F (at 1:00 PM)
Minimum temperature yesterday: 68 °F (at 12:00 AM)
Average temperature yesterday: 73 °F

Past Weeks' High & Low Weather Summary

 TemperatureHumidityPressure
High82 °F (Feb 19, 11:00 AM)94% (Feb 19, 3:00 AM)30.27 "Hg (Feb 19, 3:00 AM)
Low61 °F (Feb 16, 5:00 AM)44% (Feb 16, 10:00 AM)29.68 "Hg (Feb 21, 2:00 AM)
Average73 °F76%29.97 "Hg
* Reported Feb 15 2:00 AM — Mar 2 2:00 AM, Durban, Weather by CustomWeather, © 2015

Note: Actual official high and low records may vary slightly from our data, if they occured in-between our weather recording intervals... More about our weather records

Advertising

Durban weather history for previous 24 hours

 ConditionsComfort  
Time TempWeatherWind HumidityBarometerVisibility
2:00 AM
Mon, Mar 2
68 °FPassing clouds.13 mph83%30.04 "HgN/A
1:00 AM68 °FPassing clouds.10 mph83%30.04 "HgN/A
12:00 AM70 °FPassing clouds.10 mph78%30.01 "HgN/A
11:00 PM
Sun, Mar 1
68 °FLight rain. Passing clouds.9 mph94%30.01 "HgN/A
10:00 PM70 °FPassing clouds.15 mph83%30.01 "HgN/A
9:00 PM70 °FPassing clouds.12 mph88%29.98 "HgN/A
8:00 PM70 °FPartly cloudy.9 mph88%29.95 "HgN/A
6:00 PM72 °FThunderstorms. Partly cloudy.10 mph88%29.89 "Hg4 mi
5:00 PM75 °FThunderstorms. Scattered clouds.6 mph78%29.86 "HgN/A
4:10 PM77 °FScattered clouds.7 mph79%29.83 "HgN/A
3:00 PM77 °FScattered clouds.7 mph79%29.83 "HgN/A
2:00 PM79 °FScattered clouds.9 mph70%29.83 "HgN/A
1:00 PM81 °FScattered clouds.9 mph70%29.86 "HgN/A
12:00 PM79 °FScattered clouds.8 mph70%29.86 "HgN/A
11:00 AM75 °FScattered clouds.7 mph78%29.89 "HgN/A
10:00 AM77 °FScattered clouds.5 mph74%29.89 "HgN/A
9:00 AM77 °FPassing clouds.2 mph74%29.89 "HgN/A
8:00 AM73 °FPassing clouds.5 mph83%29.89 "HgN/A
7:00 AM70 °FSunny.1 mph88%29.89 "Hg10 mi
6:00 AM70 °FSunny.1 mph83%29.89 "Hg10 mi
5:00 AM68 °FPassing clouds.3 mph94%29.86 "HgN/A
4:00 AM70 °FPassing clouds.3 mph88%29.89 "HgN/A
3:00 AM70 °FPassing clouds.2 mph88%29.89 "HgN/A
Weather by CustomWeather, © 2015

See weather overviewHow to use our weather pages